TimeEST,TemperatureF,Dew PointF,Humidity,Sea Level PressureIn,VisibilityMPH,Wind Direction,Wind SpeedMPH,Gust SpeedMPH,PrecipitationIn,Events,Conditions,WindDirDegrees,DateUTC
12:15 AM,37.8,29.5,72,29.84,10.0,West,19.6,26.5,N/A,,Overcast,260,2013-02-15 05:15:00
12:34 AM,37.4,29.1,72,29.84,10.0,West,13.8,21.9,N/A,,Overcast,270,2013-02-15 05:34:00
12:54 AM,37.4,28.9,71,29.85,10.0,West,11.5,19.6,N/A,,Overcast,270,2013-02-15 05:54:00
1:14 AM,36.9,28.9,73,29.86,10.0,West,9.2,21.9,N/A,,Overcast,270,2013-02-15 06:14:00
1:34 AM,36.5,29.1,75,29.86,10.0,West,9.2,-,N/A,,Overcast,270,2013-02-15 06:34:00
1:55 AM,36.1,28.2,73,29.87,10.0,WNW,12.7,20.7,N/A,,Overcast,290,2013-02-15 06:55:00
2:14 AM,35.6,27.5,72,29.88,10.0,West,9.2,18.4,N/A,,Overcast,280,2013-02-15 07:14:00
2:34 AM,35.1,26.4,71,29.88,10.0,West,8.1,18.4,N/A,,Overcast,270,2013-02-15 07:34:00
2:54 AM,34.7,25.7,70,29.90,10.0,WNW,10.4,20.7,N/A,,Overcast,290,2013-02-15 07:54:00
3:14 AM,34.3,24.8,68,29.90,10.0,WNW,11.5,21.9,N/A,,Overcast,290,2013-02-15 08:14:00
3:34 AM,34.3,25.3,70,29.91,10.0,West,9.2,-,N/A,,Overcast,270,2013-02-15 08:34:00
3:54 AM,34.0,24.8,69,29.91,10.0,West,12.7,17.3,N/A,,Mostly Cloudy,270,2013-02-15 08:54:00
4:14 AM,32.9,24.4,71,29.91,10.0,West,9.2,-,N/A,,Scattered Clouds,260,2013-02-15 09:14:00
4:34 AM,32.5,23.9,70,29.92,10.0,WNW,10.4,16.1,N/A,,Clear,290,2013-02-15 09:34:00
4:54 AM,32.0,23.7,71,29.93,10.0,WNW,10.4,-,N/A,,Clear,290,2013-02-15 09:54:00
5:14 AM,32.0,23.4,70,29.94,10.0,WNW,13.8,19.6,N/A,,Scattered Clouds,290,2013-02-15 10:14:00
5:34 AM,31.5,21.9,68,29.96,10.0,WNW,12.7,23.0,N/A,,Mostly Cloudy,300,2013-02-15 10:34:00
5:54 AM,31.1,21.6,68,29.96,10.0,WNW,12.7,17.3,N/A,,Overcast,300,2013-02-15 10:54:00
6:14 AM,31.5,22.5,69,29.97,10.0,WNW,8.1,-,N/A,,Overcast,290,2013-02-15 11:14:00
6:34 AM,31.3,22.6,70,29.98,10.0,WNW,11.5,16.1,N/A,,Overcast,300,2013-02-15 11:34:00
6:54 AM,30.7,22.1,70,29.99,10.0,WNW,8.1,-,N/A,,Overcast,300,2013-02-15 11:54:00
7:14 AM,30.6,21.9,70,30.00,10.0,WNW,10.4,-,N/A,,Overcast,290,2013-02-15 12:14:00
7:35 AM,30.6,22.1,71,30.00,10.0,WNW,5.8,-,N/A,,Overcast,300,2013-02-15 12:35:00
7:54 AM,30.7,22.3,71,30.01,10.0,WNW,9.2,-,N/A,,Overcast,290,2013-02-15 12:54:00
8:14 AM,30.4,22.5,72,30.02,10.0,West,5.8,-,N/A,,Scattered Clouds,280,2013-02-15 13:14:00
8:34 AM,30.6,19.8,64,30.03,10.0,NW,11.5,16.1,N/A,,Mostly Cloudy,310,2013-02-15 13:34:00
8:54 AM,30.0,15.1,54,30.04,10.0,NW,11.5,17.3,N/A,,Overcast,310,2013-02-15 13:54:00
9:15 AM,29.8,15.6,56,30.05,10.0,WNW,11.5,-,N/A,,Overcast,290,2013-02-15 14:15:00
9:34 AM,29.5,14.5,54,30.05,10.0,WNW,10.4,20.7,N/A,,Overcast,300,2013-02-15 14:34:00
9:54 AM,29.7,14.2,53,30.06,10.0,WNW,13.8,20.7,N/A,,Overcast,300,2013-02-15 14:54:00
10:15 AM,30.4,14.7,52,30.06,10.0,NW,9.2,-,N/A,,Scattered Clouds,310,2013-02-15 15:15:00
10:34 AM,31.1,14.5,50,30.06,10.0,West,11.5,-,N/A,,Clear,280,2013-02-15 15:34:00
10:54 AM,32.0,14.9,49,30.07,10.0,WNW,12.7,17.3,N/A,,Scattered Clouds,300,2013-02-15 15:54:00
11:14 AM,31.5,14.4,49,30.07,10.0,West,17.3,25.3,N/A,,Scattered Clouds,280,2013-02-15 16:14:00
11:34 AM,32.0,14.0,48,30.07,10.0,WNW,13.8,21.9,N/A,,Mostly Cloudy,290,2013-02-15 16:34:00
11:55 AM,32.0,14.0,48,30.07,10.0,WNW,13.8,19.6,N/A,,Overcast,300,2013-02-15 16:55:00
12:14 PM,31.8,14.2,48,30.07,10.0,WNW,13.8,21.9,N/A,,Overcast,300,2013-02-15 17:14:00
12:54 PM,32.0,13.1,46,30.07,10.0,West,12.7,20.7,N/A,,Overcast,280,2013-02-15 17:54:00
1:14 PM,32.2,12.6,44,30.06,10.0,NW,11.5,-,N/A,,Overcast,310,2013-02-15 18:14:00
1:34 PM,32.0,11.5,43,30.06,10.0,WNW,10.4,19.6,N/A,,Overcast,300,2013-02-15 18:34:00
1:54 PM,32.0,12.0,44,30.06,10.0,WNW,13.8,19.6,N/A,,Overcast,300,2013-02-15 18:54:00
1:59 PM,32.0,12.2,44,30.06,10.0,WNW,16.1,-,N/A,,Overcast,290,2013-02-15 18:59:00
2:14 PM,32.0,11.7,43,30.06,10.0,WNW,9.2,-,N/A,,Overcast,300,2013-02-15 19:14:00
2:19 PM,32.0,12.0,44,30.06,10.0,WNW,15.0,19.6,N/A,,Overcast,290,2013-02-15 19:19:00
2:59 PM,32.0,10.4,41,30.06,10.0,West,8.1,17.3,N/A,,Overcast,280,2013-02-15 19:59:00
4:59 PM,30.2,12.2,47,30.09,10.0,NW,10.4,17.3,N/A,,Overcast,320,2013-02-15 21:59:00
5:59 PM,30.2,12.2,47,30.10,10.0,NW,6.9,-,N/A,,Overcast,310,2013-02-15 22:59:00
6:59 PM,30.2,10.4,44,30.12,10.0,WNW,5.8,-,N/A,,Overcast,300,2013-02-15 23:59:00
7:59 PM,30.2,12.2,47,30.12,10.0,WNW,5.8,-,N/A,,Overcast,300,2013-02-16 00:59:00
8:59 PM,30.2,12.2,47,30.12,10.0,Calm,Calm,-,N/A,,Overcast,0,2013-02-16 01:59:00
9:59 PM,30.2,14.0,51,30.12,10.0,WNW,8.1,-,N/A,,Overcast,290,2013-02-16 02:59:00
10:59 PM,28.4,15.8,59,30.11,10.0,NW,5.8,-,N/A,,Overcast,310,2013-02-16 03:59:00